Regional Weather Roundup
Issued by NWS

Home | Current Version | Previous Version | Text Only | Print | Product List | Glossary On
Versions: 1 2 3 4 5 6 7 8 9 10 11 12 13 14 15 16 17 18 19 20 21 22 23 24 25 26 27 28 29 30 31 32 33 34 35 36 37 38 39 40 41 42 43 44 45 46 47 48 49 50
000
ASUS42 KTBW 260417
RWRFL
FLORIDA REGIONAL WEATHER ROUNDUP
NATIONAL WEATHER SERVICE TAMPA BAY RUSKIN FL
1200 AM EDT TUE MAY 26 2015

NOTE: "FAIR" INDICATES FEW OR NO CLOUDS BELOW 12,000 FEET WITH NO
SIGNIFICANT WEATHER AND/OR OBSTRUCTIONS TO VISIBILITY.


FLZ001>010-012>015-112-114-115-260500-
PANHANDLE FLORIDA

CITY           SKY/WX    TMP DP  RH WIND       PRES   REMARKS
PENSACOLA      PTCLDY    75  73  93 E7        30.12R
PENSACOLA NAS  MOCLDY    80  76  87 SE12      30.12R
MILTON NAS     PTCLDY    72  71  97 SE8       30.12
CRESTVIEW      CLEAR     71  70  96 CALM      30.15R
DUKE FIELD     FAIR      71  70  95 E2        30.13
TRI COUNTY     FAIR      70  69  97 CALM      30.16R
PANAMA CITY    FAIR      73  70  90 NE5       30.14R
APALACHICOLA   PTCLDY    77  71  82 CALM      30.13S

STATION/POSITION SKY/WX   TEMP    WIND        PRES    WAVE   SWELL
                          AIR SEA DIR/SP/G            HT/PER HT/PER
                          (F)     (DEG/KT/KT) (MB)    (FT/S) (FT/S)
30.1N   87.6W              80 80  130/ 14/ 17 1018.7R   4/ 7   2/ 7
29.2N   88.2W              80 80  130/ 17/ 25 1019.2R   5/ 7   2/17
28.8N   86.0W              80 80  130/ 14/ 16 1019.7R   4/ 6   2/ 6
PANAMA CITY BEAC           79 82   80/  4/  6 1020.1R
CAPE SAN BLAS    NOT AVBL
TOWER C                    78     130/  9/  9 1020.4S
28.5N   84.5W              81 80  100/ 10/ 10 1020.5F   2/ 6   2/ 6

$$
FLZ011-016>038-118-127-128-134-139-239-260500-
NORTH FLORIDA

CITY           SKY/WX    TMP DP  RH WIND       PRES   REMARKS
MARIANNA       PTCLDY    71  71 100 NE3       30.15S
TALLAHASSEE    MOCLDY    78  65  63 E5        30.15R
PERRY          CLOUDY    79  70  74 E8        30.18R
CROSS CITY       N/A     76  73  91 CALM      30.18S
LAKE CITY      FAIR      73  70  88 E7        30.20F
GAINESVILLE    CLEAR     74  70  87 E8        30.20F
MAYPORT NAS    PTCLDY    78  74  87 SE12      30.22F
JACKSONVILLE   MOCLDY    75  73  93 E8        30.21F
JAX NAS        PTCLDY    80  73  79 SE8       30.22F
JAX CRAIG      PTCLDY    77  72  84 SE6       30.21F
JAX CECIL      CLEAR     75  73  94 CALM      30.21F
FERNANDINA BEA FAIR      81  77  89 SE6       30.21F
ST AUGUSTINE   PTCLDY    77  74  90 SE8       30.22F

STATION/POSITION SKY/WX   TEMP    WIND        PRES    WAVE   SWELL
                          AIR SEA DIR/SP/G            HT/PER HT/PER
                          (F)     (DEG/KT/KT) (MB)    (FT/S) (FT/S)
SHELL POINT                78      30/  2/  3   N/A
KEATON BEACH               77      80/  7/  7 1021.6R
CEDAR KEY                  81     110/ 16/ 17 1021.9R
FERNANDINA                 78 81  100/  4/  7 1023.0R
30.7N   81.3W                 79                N/A     3/ 7
MAYPORT                    78 80  110/  6/  9 1023.8R
31.4N   80.9W              76 76  100/ 10/ 10 1024.3S   3/ 7   3/ 7
ST AUGUSTINE               78 79  130/ 10/ 11 1023.9F

$$
FLZ040-043>046-052-053-057-058-063-144-260500-
INTERIOR CENTRAL FLORIDA

CITY           SKY/WX    TMP DP  RH WIND       PRES   REMARKS
OCALA          PTCLDY    75  70  83 E3        30.19F
THE VILLAGES     N/A     77  75  94 E8        30.09F
LEESBURG       MOCLDY    78  72  81 E9        30.20F
SANFORD        MOCLDY    77  72  84 E6        30.20F
ORLANDO EXEC   MOCLDY    76  72  87 E6        30.20S
ORLANDO INTL   PTCLDY    78  74  87 E8        30.20S
WINTER HAVEN   CLOUDY    78  73  84 E10       30.20S
LAKELAND       CLOUDY    77  72  83 E15       30.18F
BARTOW         FAIR      75  75 100 E9        30.19F
OKEECHOBEE     MOCLDY    73  72  94 E3        30.20S

$$
FLZ041-047-054-059-064-141-147-260500-
EAST CENTRAL FLORIDA

CITY           SKY/WX    TMP DP  RH WIND       PRES   REMARKS
DAYTONA BEACH  PTCLDY    78  71  79 E6        30.22S
DELAND           N/A     73  72  94 CALM      30.22S
JFK SPACE CTR  PTCLDY    78  72  81 SE7       30.20R
CAPE CANAVERAL PTCLDY    79  73  81 SE10G18   30.20R
MELBOURNE      PTCLDY    81  73  76 E18G24    30.20S
VERO BEACH     PTCLDY    79  71  76 SE14      30.20S
FT PIERCE      LGT RAIN  76  73  91 E8G20     30.21R FOG
STUART         LGT RAIN  73  72  94 SE13G18   30.21F

STATION/POSITION SKY/WX   TEMP    WIND        PRES    WAVE   SWELL
                          AIR SEA DIR/SP/G            HT/PER HT/PER
                          (F)     (DEG/KT/KT) (MB)    (FT/S) (FT/S)
28.5N   80.2W              80 80  110/ 16/ 17 1023.0R
28.9N   78.5W              79 81  120/ 12/ 14 1024.1S
TRIDENT PIER               79 83  100/  9/ 14 1023.3R
28.4N   80.5W                 81                N/A     3/ 5
27.5N   80.2W                 81                N/A     4/ 7

$$
FLZ050-056-061-142-242-148-248-149-249-151-251-155-255-
160-260-260500-
WEST CENTRAL FLORIDA

CITY           SKY/WX    TMP DP  RH WIND       PRES   REMARKS
CRYSTAL RIVER  FAIR      79  70  73 E5        30.17S
INVERNESS      FAIR      79  72  78 SE5       30.18F
BROOKSVILLE    MOCLDY    79  71  76 E10       30.18F
CLEARWATER     CLOUDY    80  74  81 E15       30.15F
TAMPA INTL     CLOUDY    82  71  69 E7        30.16F
TAMPA EXEC     CLOUDY    81  73  78 SE8       30.17S
PLANT CITY     CLOUDY    81  75  83 E12G17    30.19F
PETER O KNIGHT CLOUDY    82  73  74 E13G18    30.16S
ST PETERSBURG  CLOUDY    81  74  79 SE17      30.14S
SARASOTA       CLOUDY    75  74  96 SE3       30.14S
VENICE         FAIR      77  75  94 E5        30.16S

STATION/POSITION SKY/WX   TEMP    WIND        PRES    WAVE   SWELL
                          AIR SEA DIR/SP/G            HT/PER HT/PER
                          (F)     (DEG/KT/KT) (MB)    (FT/S) (FT/S)
CEDAR KEY                  81     110/ 16/ 17 1021.9R
28.5N   84.5W              81 80  100/ 10/ 10 1020.5F   2/ 6   2/ 6
27.3N   84.2W                 82                N/A     3/ 6
CLEARWATER BEACH           79 85  130/  4/  7 1021.4R
MIDDLE TAMPA BAY           80     130/  7/  9 1021.4F
VENICE                     78 85   70/  4/  5 1020.6F

$$
FLZ066-069-070-075>078-162-262-165-265-260500-
SOUTHWEST FLORIDA AND KEYS

CITY           SKY/WX    TMP DP  RH WIND       PRES   REMARKS
PUNTA GORDA    MOCLDY    75  73  93 E5        30.17F
FT MYERS       MOCLDY    78  72  81 SE7       30.15S
SOUTHWEST INTL MOCLDY    78  71  79 E7        30.16S
NAPLES         CLOUDY    78  72  81 E7        30.15S
MARCO ISLAND     N/A     77  70  78 E7        30.15S
IMMOKALEE      CLEAR    N/A N/A N/A CALM      30.17S
MARATHON       PTCLDY    82  74  76 E13G18    30.13S
KEY WEST NAS   PTCLDY    81  74  79 E17       30.12S
KEY WEST INTL  PTCLDY    82  74  76 E18       30.12S

STATION/POSITION SKY/WX   TEMP    WIND        PRES    WAVE   SWELL
                          AIR SEA DIR/SP/G            HT/PER HT/PER
                          (F)     (DEG/KT/KT) (MB)    (FT/S) (FT/S)
VENICE                     78 85   70/  4/  5 1020.6F
NAPLES                     80 85  120/  6/  9 1020.9R
26.0N   85.6W              82 82  110/ 16/ 17 1018.4F   4/ 6
DRY TORTUGAS               83     120/ 21/ 23 1019.4R
NW FL BAY                  83     100/ 17/ 20 1020.6
SAND KEY                   82     110/ 20/ 22 1019.7R
SOMBRERO KEY               82     100/ 19/ 21 1020.5F
LONG KEY                   82 84  120/ 16/ 17 1021.1F
MOLASSES REEF              82 82  120/ 11/ 13 1020.5F

$$
FLZ067-068-071>074-168-172>174-260500-
SOUTHEAST FLORIDA

CITY           SKY/WX    TMP DP  RH WIND       PRES   REMARKS
W PALM BEACH   MOCLDY    78  72  81 E10       30.20R
FT LAUDER-EXEC PTCLDY    80  75  84 E15       30.17S
FT LAUDERDALE  MOCLDY    81  74  79 E15       30.16S
POMPANO BEACH  PTCLDY    81  73  76 E15       30.17S
PEMBROKE PINES PTCLDY    80  72  76 E13G21    30.18R
OPA LOCKA      PTCLDY    81  73  76 E12G22    30.16S
MIAMI          MOCLDY    82  72  71 E13       30.16S
WEST KENDALL   PTCLDY    81  73  76 E13       30.15F
HOMESTEAD      PTCLDY    81  73  75 E10       30.15S

STATION/POSITION SKY/WX   TEMP    WIND        PRES    WAVE   SWELL
                          AIR SEA DIR/SP/G            HT/PER HT/PER
                          (F)     (DEG/KT/KT) (MB)    (FT/S) (FT/S)
PORT EVERGLADES            81     100/  5/  9 1021.5F
VIRGINIA KEY               82 85  110/ 13/ 18 1020.9R
LAKE WORTH                 81 83  120/ 15/ 16 1021.9R
SETTLEMENT POINT           81     120/ 17/ 18 1023.0F

$$



USA.gov is the U.S. government's official web portal to all federal, state and local government web resources and services.